Погода Сегян-Кюель

Поиск расширенной информации на нашем сайте:

Полезная информация:

Новости сайта



02.01.2020
Опубликован Долгосрочный прогноз погоды по городам России и ближнего зарубежья на январь 2020 года.
Карты: Прогноз на январь и февраль 2020 года, Сравнение прогнозируемой аномалии приземной температуры воздуха на январь 2020 года по разным моделям.




Погода Сегян-Кюель - сегодня

Время (UTC), дата Ветер
(°,м/с) 
Видим.   Явления Облачность Т
(°С)
Тd
(°С)
f(%) Тe
(°С)
Pmin
(гПа)
dP
(гПа)
Po
(мм)
O2
(г/м3)
Тmin Tmax R s Состояние
почвы
21 29.11.20 тихо ()   20000 м    ясно 
-40.4 -43.3 74 -40  1028.7  -0.4  748  356           
00 30.11.20 080 (В) 50000 м    1/0 верхняя 
[Ci fib]
-40.3 -43.3 73 -42  1028.5  -0.2  748  356  -41    0.0  36  неравномерный
сухой снег
100% 
03 30.11.20 тихо ()   20000 м    1/0 верхняя 
[Ci fib]
-37.3 -40.1 75 -37  1027.5  -0.4  748  351           
06 30.11.20 тихо ()   20000 м    ясно 
-36 -39 74 -36  1026.9  -0.5  747  349           
09 30.11.20 тихо ()   20000 м    ясно 
-37.7 -40.5 75 -38  1027.4  0.2  748  352           
12 30.11.20 тихо ()   20000 м    3/0 средняя, верхняя 
[Ac trans|Ci fib]
-38.6 -41.4 75 -39  1027.1  -0.4  747  353    -36  0.0     
15 30.11.20 тихо ()   20000 м    4/0 средняя, верхняя 
[Ac trans|Ci fib]
-38 -40.9 74 -38  1026.5  -0.5  747  352           
18 30.11.20 тихо ()   20000 м    10/0 средняя, верхняя 
[Ac trans|Ci fib]
-37.8 -40.5 76 -38  1026.3  -0.2  747  351           
21 30.11.20 тихо ()   20000 м    8/0 средняя, верхняя 
[Ac trans|Ci fib]
-33.7 -36.6 75 -34  1025  -0.7  746  345           
00 01.12.20 тихо ()   20000 м  в посл. час снег  10/0 средняя, верхняя 
[Ac trans|Cs]
-31 -34.1 74 -31  1024.3  -0.4  746  341  -39.1    0.0  36  неравномерный
сухой снег
100% 
03 01.12.20 тихо ()   20000 м  {ливн. осадки}  9/9 1000 м кучево-дожд. 
[Cb cap]
-28.2 -31.3 75 -28  1023  -0.9  745  337           
06 01.12.20 тихо ()   20000 м  {ливн. осадки}  9/4 1000 м средняя 
[Sc|Ac trans]
-27.5 -30.7 74 -28  1022.2  -0.8  745  336           
09 01.12.20 тихо ()   20000 м  слаб. ливневой снег  10/10 1000 м кучево-дожд. 
[Cb cap]
-26.9 -29.3 80 -27  1020.9  -1  744  334           
12 01.12.20 тихо ()   10 км  слаб. снег{ливн. осадки}  10/0 средняя, верхняя 
[Ac trans|Cs]
-26.4 -28.9 79 -26  1019.2  -2.6  743  333    -26.3  0.7     
15 01.12.20 тихо ()   10 км  слаб. снег  10/0 средняя, верхняя 
[Ac trans|Cs]
-25.9 -28.4 79 -26  1018  -1.2  742  332           
18 01.12.20 260 (З) 20000 м  слаб. снег  10/0 средняя, верхняя 
[Ac trans|Cs]
-25.8 -28.3 79 -26  1016.4  -1.6  741  331           
21 01.12.20 040 (СВ) 10 км  слаб. снег  10/3 1000 м средняя 
[Sc|As trans]
-25.9 -28.4 79 -26  1015.1  -1.2  740  331           
00 02.12.20 тихо ()   20000 м  слаб. снег  10/3 1000 м средняя, верхняя 
[Sc|Ac trans|Cs]
-26.1 -28.6 79 -26  1014.2  -0.9  739  331  -26.9    37  неравномерный
сухой снег
100% 
03 02.12.20 тихо ()   20000 м  {снег}  3/0 средняя 
[Ac trans]
-26.9 -29.3 80 -27  1013.4  -0.9  738  332           
06 02.12.20 тихо ()   20000 м  {снег}  3/0 средняя, верхняя 
[Ac trans|Ci fib]
-31 -33.4 79 -31  1013.6  -0.3  738  337           
09 02.12.20 тихо ()   20000 м    10/0 средняя, верхняя 
[Ac trans|Ci fib]
-31.3 -33.6 80 -31  1012.9  -0.7  738  338           
12 02.12.20 тихо ()   20000 м  слаб. снег  10/3 1000 м средняя 
[Sc|As trans]
-27.5 -30 79 -28  1010.7  -1.5  737  332    -25.9  0.3     
15 02.12.20 тихо ()   10 км  слаб. снег  10/0 средняя 
[As trans]
-26 -28.4 80 -26  1009.2  -1.4  735  329           
18 02.12.20 360 (С) 20000 м  {снег}  9/0 средняя 
[Ac trans]
-25.7 -28.1 80 -26  1008.2  -1  735  329           
21 02.12.20 тихо ()   20000 м    3/0 средняя, верхняя 
[Ac trans|Ci fib]
-27.9 -30.3 80 -28  1007.7  -0.8  734  331           
Время (UTC), дата Ветер
(°,м/с) 
Видим.   Явления Облачность Т
(°С)
Тd
(°С)
f(%) Тe
(°С)
Pmin
(гПа)
dP
(гПа)
Po
(мм)
O2
(г/м3)
Тmin Tmax R s Состояние
почвы

Для получения пояснительной информации подведите курсор к названию столбца.

ПОГОДА Сегян-Кюель - архив

Всё, что Вы хотите узнать о погоде Сегян-Кюель - удобно и подробно!

Выберите нужную дату (начиная с 1 января 2019* года) и нажмите кнопку "Найти".
Будут отображены архивные сводки погоды по пункту Сегян-Кюель, начиная с указанной даты.


Отображать данные в формате CSV (для использования в таблицах Excel)


Внимание! Наш архив погоды предназначен исключительно для личного некоммерческого использования в познавательных целях. Если Вам необходимы официальные справки о состоянии погоды (для производственных, юридических, коммерческих и т.п. целей), обращайтесь в органы Росгидромета.

*Примечание: данная дата относится к архиву по метеостанциям СССР (Россия, СНГ, Балтия).
Архив по метеостанциям Зарубежной Европы и Азии (кроме Китая) хранится 10 дней, по другим регионам земного шара (Китай, Африка, Америка, Австралия, Океания) - 1 день.

Сегян-Кюель - район местоположения метеостанции


Название, широта, долгота, высота метеостанции:
Сегян-Кюель 64.00°ш. 130.30°д. 211 м над ур. моря [Российская Федерация]

Дополнительная информация

В oтличие oт бoльшинства пoгoдных сайтoв мы публикуем пoдрoбную метеoинфoрмацию в детальнoм прoфессиoнальнoм фoрмате.

Характеристики температуры и влажнoсти вoздуха измеряются на высoте 2 м в тени вдали oт зданий и деревьев.
Скoрoсть ветра измеряется на высoте 10 м (на урoвне рoста челoвека скoрoсть ветра ниже в 1.5-2 раза). Если метеoстанция нахoдится в гoрoде или в лесу, тo скoрoсть ветра занижена на 2-4 м/с пo сравнению с oткрытым местoм. Скoрoсть ветра над акватoриями крупных рек и oзёр, а также на вершинах хoлмoв на 2-5 м/с выше, чем в oбычных услoвиях.
Атмoсфернoе давление в разных тoчках местнoсти мoжет значительнo oтличаться oт давления на метеoстанции, в зависимoсти oт услoвий рельефа (при пoдъёме на 10 м давление пoнижается примернo на 1 мм рт.ст.).